Date,TemperatureHighF,TemperatureAvgF,TemperatureLowF,DewpointHighF,DewpointAvgF,DewpointLowF,HumidityHigh,HumidityAvg,HumidityLow,PressureMaxIn,PressureMinIn,WindSpeedMaxMPH,WindSpeedAvgMPH,GustSpeedMaxMPH,PrecipitationSumIn
2013-3-1,69.1,49.1,29.7,28.6,23.2,15.2,75,42,16,30.30,30.10,4,1,13,0.00
2013-3-2,61.0,46.5,36.6,30.1,26.8,22.8,68,49,25,30.42,30.25,7,2,19,0.00
2013-3-3,74.9,56.6,36.9,41.2,30.0,22.4,65,39,19,30.25,29.86,8,4,25,0.00
2013-3-4,89.0,67.8,53.2,51.2,43.9,39.1,80,48,18,29.86,29.64,8,5,16,0.00
2013-3-5,65.2,54.2,37.9,53.3,25.0,10.5,70,37,13,30.36,29.69,16,6,26,0.00
2013-3-6,64.0,47.2,32.8,24.3,18.2,11.2,52,34,13,30.46,30.21,3,0,11,0.00
2013-3-7,70.9,56.2,38.8,51.9,41.2,19.1,81,59,37,30.23,30.05,7,3,17,0.00
2013-3-8,63.2,59.5,55.7,63.1,56.8,50.4,100,91,75,30.11,29.96,7,3,13,0.06
2013-3-9,70.4,64.3,60.2,66.8,62.3,57.2,100,93,80,29.97,29.60,8,5,16,0.13
2013-3-10,64.0,55.9,41.9,61.9,42.5,32.1,100,64,36,30.11,29.67,10,3,26,1.00
2013-3-11,64.8,47.1,34.6,33.5,29.0,21.1,86,55,21,30.18,29.98,6,1,15,0.00
2013-3-12,79.0,57.2,40.2,38.5,31.4,24.4,67,41,17,30.22,30.03,7,2,21,0.00
2013-3-13,76.0,58.0,40.3,39.4,35.6,30.7,76,47,23,30.42,30.21,6,2,8,0.00
2013-3-14,78.3,61.2,48.8,51.8,44.0,35.9,87,57,28,30.35,30.18,7,3,17,0.00
2013-3-15,80.7,65.2,53.2,53.4,47.2,37.1,92,58,26,30.20,29.95,9,5,18,0.00
2013-3-16,84.5,68.0,56.9,59.7,53.7,48.2,90,64,29,29.95,29.68,10,5,18,0.00
2013-3-17,84.0,70.3,64.0,61.7,58.3,55.3,83,68,40,29.76,29.58,8,3,20,0.00
2013-3-18,88.0,72.2,61.2,64.0,52.1,38.5,100,58,19,29.89,29.65,7,3,18,0.00
2013-3-19,85.1,64.9,45.1,62.0,51.4,40.8,91,63,37,29.96,29.79,6,2,13,0.45
2013-3-20,71.5,58.3,49.6,54.7,45.1,34.3,100,67,27,30.22,29.95,11,2,19,0.05
2013-3-21,73.9,62.3,48.9,58.8,50.8,37.5,84,67,52,30.00,29.56,9,4,20,0.00
2013-3-22,87.4,70.8,57.0,64.4,60.0,47.1,95,71,39,29.72,29.56,8,4,12,0.02
2013-3-23,81.4,60.7,49.4,59.4,51.0,45.4,95,73,39,29.77,29.54,5,2,11,0.00
2013-3-24,59.5,50.2,40.3,57.2,30.8,19.7,94,51,24,30.15,29.66,13,5,21,0.00
2013-3-25,59.8,45.0,33.5,25.9,20.4,13.4,64,41,17,30.38,30.15,7,1,16,0.00
2013-3-26,66.6,47.2,27.5,24.8,20.8,16.3,74,40,15,30.49,30.27,4,1,7,0.00
2013-3-27,67.6,54.0,37.6,46.0,36.1,21.0,71,52,36,30.30,30.12,8,3,20,0.00
2013-3-28,73.0,61.8,53.2,56.9,53.1,45.8,85,74,56,30.17,30.07,8,3,16,0.00
2013-3-29,76.1,66.7,59.0,57.5,55.6,54.0,90,69,47,30.13,30.00,8,4,12,0.00
2013-3-30,82.2,69.5,62.1,61.2,58.7,56.4,92,70,44,30.05,29.83,8,3,18,0.00
2013-3-31,79.9,68.0,58.1,65.2,60.6,54.7,92,78,51,29.92,29.81,7,2,13,0.12